Regional Weather Roundup
Issued by NWS

Home | Current Version | Previous Version | Text Only | Print | Product List | Glossary Off
Versions: 1 2 3 4 5 6 7 8 9 10 11 12 13 14 15 16 17 18 19 20 21 22 23 24 25 26 27 28 29 30 31 32 33 34 35 36 37 38 39 40 41 42 43 44 45 46 47 48 49 50

000
ASUS43 KLSX 051759
RWRMO

WEATHER SUMMARY FOR MISSOURI
NATIONAL WEATHER SERVICE SPRINGFIELD MO
100 PM CDT SUN JUL 05 2015

NOTE: "FAIR" INDICATES FEW OR NO CLOUDS BELOW 12,000 FEET WITH NO
       SIGNIFICANT WEATHER AND/OR OBSTRUCTIONS TO VISIBILITY.
       CURRENT SKY AND/OR WEATHER CONDITIONS ARE NOT AVAILABLE FOR
       CHILLICOTHE AND FARMINGTON.

MOZ001>031-035>038-043-044-053-054-051900-
...NORTHERN AND WESTERN MISSOURI...

CITY           SKY/WX    TMP DP  RH WIND       PRES   REMARKS
KANSAS CTY INT CLOUDY    84  73  69 S14       29.96F HX  90
6HR MIN TEMP:  69; 6HR MAX TEMP:  84;

KANSAS C DTWN  CLOUDY    88  74  63 S10       29.95F HX  96
6HR MIN TEMP:  72; 6HR MAX TEMP:  88;

LEE`S SUMMIT   CLOUDY    85  72  65 S10G17    29.98F HX  91
6HR MIN TEMP:  69; 6HR MAX TEMP:  85;

ST JOSEPH      CLOUDY    85  72  65 S12       29.95F HX  91
6HR MIN TEMP:  70; 6HR MAX TEMP:  85;

CHILLICOTHE      N/A     85  71  63 VRB7      29.99F HX  90
6HR MIN TEMP:  66; 6HR MAX TEMP:  86;

KIRKSVILLE     PTSUNNY   84  68  58 S9        30.02F
6HR MIN TEMP:  66; 6HR MAX TEMP:  84; 6HR PCP: TRACE;


$$
MOZ066>068-077>081-088>096-101>105-051900-
...SOUTHWEST MISSOURI...

CITY           SKY/WX    TMP DP  RH WIND       PRES   REMARKS
SPRINGFIELD    MOSUNNY   83  71  67 S6        30.04S
6HR MIN TEMP:  71; 6HR MAX TEMP:  83;

JOPLIN         PTSUNNY   85  74  69 S9        30.01F HX  92
6HR MIN TEMP:  72; 6HR MAX TEMP:  87;


$$
MOZ032>034-039>042-045>050-055>058-069>072-051900-
...CENTRAL MISSOURI...

CITY           SKY/WX    TMP DP  RH WIND       PRES   REMARKS
COLUMBIA       MOSUNNY   83  71  67 SE9       30.04S
6HR MIN TEMP:  68; 6HR MAX TEMP:  83;

JEFFERSON CITY SUNNY     81  70  69 SE8       30.03F
6HR MIN TEMP:  68; 6HR MAX TEMP:  81;

ROLLA          MOSUNNY   81  70  69 SE6       30.06S
6HR MIN TEMP:  67; 6HR MAX TEMP:  81;

SEDALIA        PTSUNNY   84  73  69 SE8       30.02F HX  90
6HR MIN TEMP:  69; 6HR MAX TEMP:  85;

OSAGE BEACH    MOSUNNY   84  72  65 SE6       30.04S

$$
MOZ051-052-059>065-051900-
...EAST CENTRAL MISSOURI...

CITY           SKY/WX    TMP DP  RH WIND       PRES   REMARKS
ST LOUIS INTL  PTSUNNY   85  66  53 SW5       30.07S
6HR MIN TEMP:  70; 6HR MAX TEMP:  87;

SPIRIT OF STL  MOSUNNY   83  68  60 S6        30.04F
6HR MIN TEMP:  65; 6HR MAX TEMP:  84;

ST CHARLES     MOSUNNY   83  68  60 S8        30.04F
6HR MIN TEMP:  69; 6HR MAX TEMP:  83;


$$
MOZ072>076-082>087-097>100-106>115-051900-
...SOUTH CENTRAL AND SOUTHEAST MISSOURI...

CITY           SKY/WX    TMP DP  RH WIND       PRES   REMARKS
CAPE GIRARDEAU MOSUNNY   82  69  64 CALM      30.08S HAZE
6HR MIN TEMP:  69; 6HR MAX TEMP:  82;

FARMINGTON     SUNNY     81  66  61 S5        30.13S
6HR MIN TEMP:  64; 6HR MAX TEMP:  81;

POPLAR BLUFF   SUNNY     81  71  71 SE3       30.07S
6HR MIN TEMP:  69; 6HR MAX TEMP:  81;

WEST PLAINS    PTSUNNY   79  70  74 S7        30.10S
6HR MIN TEMP:  70; 6HR MAX TEMP:  80;


$$


USA.gov is the U.S. government's official web portal to all federal, state and local government web resources and services.